Content
SEND FEEDBACK

Daily
Averages
Monthly
Summary
United States of America

BAYOU LA BATRE, ALABAMA


Home > North America > United States > Alabama
Elevation: 0 feet     Latitude: 30 23N     Longitude: 088 14W

WEATHER
 
SELECT A DAY
Number of Records: 201,055;   Date Range: 8/14/97 - 12/20/14
 
SHARE

PRINT THIS DATA

[ ← Previous Day ]
WEATHER ALMANAC - AUGUST 25, 2014
[ Next Day → ]
[ °C ]   °F
Weather ElementAverageHighLow
Temperature83.4 °F90 °F (12:53 pm)75.9 °F (12:53 am)
Dewpoint72.7 °F73.9 °F (1:53 am)69.1 °F (2:53 pm)
Humidity71.1 %91 % (7:53 am)53 % (5:53 pm)
Barometer29.92 in29.96 in (7:53 pm)29.88 in (1:53 pm)
Wind Speed6.1 mph11.5 mph (2:53 pm)
Wind Gust17.3 mph (2:53 pm)
Weather ElementAverage
Visibility10 mi
Wind DirectionENE (66.3 °)

Weather ElementTotal
Precipitation---
Cooling Degree Days18 (Base 65)
Growing Degree Days33 (Base 50)
Averaged from 19 records on August 25, 2014
WEATHER CONDITIONS BREAKOUT
WIND DIRECTION BREAKOUT
WEATHER BY HOUR - AUGUST 25, 2014
[ °C ]   °F
Local TimeTemperatureDewpointHumidityBarometerVisibilityWind DirectionWind SpeedGust SpeedPrecipitationEventsConditions
12:53 AM82.9 °F73.9 °F74 %29.89 in10.0 miEast (90°)5.8 mphClear
1:53 AM81.0 °F73.9 °F79 %29.88 in10.0 miENE (60°)5.8 mphClear
2:53 AM80.1 °F73.9 °F81 %29.89 in10.0 miENE (70°)5.8 mphClear
4:53 AM75.9 °F73.0 °F91 %29.88 in10.0 miNNE (20°)4.6 mphClear
5:53 AM77.0 °F73.0 °F88 %29.91 in10.0 miNE (40°)5.8 mphPartly Cloudy
7:53 AM79.0 °F73.9 °F84 %29.93 in10.0 miENE (60°)5.8 mphPartly Cloudy
9:53 AM84.0 °F73.9 °F72 %29.96 in10.0 miEast (100°)11.5 mphPartly Cloudy
10:53 AM87.1 °F73.9 °F65 %29.96 in10.0 miENE (70°)10.4 mphMostly Cloudy
11:53 AM89.1 °F73.0 °F59 %29.96 in10.0 miENE (70°)9.2 mph17.3 mphPartly Cloudy
12:53 PM89.1 °F71.1 °F55 %29.95 in10.0 miENE (70°)8.1 mphScattered Clouds
1:53 PM90.0 °F71.1 °F54 %29.94 in10.0 miVariable3.5 mphScattered Clouds
2:53 PM89.1 °F70.0 °F53 %29.91 in10.0 miEast (80°)6.9 mphMostly Cloudy
3:53 PM88.0 °F73.9 °F63 %29.90 in10.0 miSSE (150°)9.2 mphMostly Cloudy
4:53 PM86.0 °F73.0 °F65 %29.89 in10.0 miSE (130°)9.2 mphMostly Cloudy
5:53 PM86.0 °F73.9 °F67 %29.89 in10.0 miSSE (150°)5.8 mphPartly Cloudy
6:53 PM84.9 °F73.0 °F67 %29.88 in10.0 miCalmClear
7:53 PM80.1 °F73.9 °F81 %29.91 in10.0 miCalmPartly Cloudy
10:53 PM78.1 °F70.0 °F76 %29.96 in10.0 miNE (40°)4.6 mphClear
11:53 PM77.0 °F69.1 °F76 %29.96 in10.0 miENE (60°)4.6 mphClear
Hourly data recorded from KPQL, located miles away from Bayou La Batre, Alabama







STORIES FROM OUR PARTNERS